| time (UTC) | temp F | wind direction | speed MPH | gust MPH | rain 1hr in | rain 24hr in | rain mn in | humidity % | barometer mb |
| 20260507064743 | 49 | 52 | 4.0 | 8.0 | 0.00 | 0.00 | 0.00 | 79 | 1007.5 |
| 20260507063233 | 49 | 75 | 4.0 | 7.0 | 0.00 | 0.00 | 0.00 | 79 | 1007.4 |
| 20260507061742 | 48 | 23 | 4.0 | 7.0 | 0.00 | 0.00 | 0.00 | 80 | 1007.6 |
| 20260507060235 | 48 | 25 | 2.0 | 5.0 | 0.00 | 0.00 | 0.00 | 81 | 1007.6 |
| 20260507054740 | 47 | 25 | 2.0 | 7.0 | 0.00 | 0.00 | 0.00 | 83 | 1007.5 |
| 20260507053246 | 47 | 17 | 3.0 | 7.0 | 0.00 | 0.00 | 0.00 | 84 | 1007.5 |
| 20260507051737 | 46 | 27 | 3.0 | 9.0 | 0.00 | 0.00 | 0.00 | 84 | 1007.4 |
| 20260507050234 | 46 | 56 | 5.0 | 8.0 | 0.00 | 0.00 | 0.00 | 84 | 1007.4 |
| 20260507044745 | 47 | 55 | 6.0 | 11.0 | 0.00 | 0.00 | 0.00 | 83 | 1007.2 |
| 20260507043236 | 47 | 360 | 9.0 | 13.0 | 0.00 | 0.00 | 0.00 | 82 | 1007.1 |
| 20260507041745 | 48 | 51 | 8.0 | 11.0 | 0.00 | 0.00 | 0.00 | 81 | 1007.2 |
| 20260507040256 | 48 | 352 | 5.0 | 10.0 | 0.00 | 0.00 | 0.00 | 81 | 1007.4 |
| 20260507034741 | 48 | 354 | 4.0 | 8.0 | 0.00 | 0.00 | 0.00 | 81 | 1007.6 |
| 20260507033232 | 48 | 52 | 3.0 | 6.0 | 0.00 | 0.00 | 0.00 | 80 | 1007.7 |
| 20260507031737 | 48 | 52 | 1.0 | 4.0 | 0.00 | 0.00 | 0.00 | 80 | 1007.8 |
| 20260507030242 | 48 | 8 | 3.0 | 5.0 | 0.00 | 0.00 | 0.00 | 80 | 1008.0 |
| 20260507024737 | 48 | 41 | 2.0 | 11.0 | 0.00 | 0.00 | 0.00 | 81 | 1007.8 |
| 20260507023304 | 48 | 31 | 3.0 | 11.0 | 0.00 | 0.00 | 0.00 | 83 | 1007.7 |
| 20260507021733 | 48 | 48 | 4.0 | 12.0 | 0.00 | 0.00 | 0.00 | 81 | 1007.9 |
| 20260507020250 | 48 | 78 | 8.0 | 17.0 | 0.00 | 0.00 | 0.00 | 80 | 1007.7 |
| 20260507014741 | 48 | 62 | 8.0 | 16.0 | 0.00 | 0.00 | 0.00 | 80 | 1007.8 |
| 20260507013248 | 48 | 41 | 9.0 | 16.0 | 0.00 | 0.00 | 0.00 | 80 | 1008.0 |
| 20260507011739 | 48 | 49 | 11.0 | 14.0 | 0.00 | 0.00 | 0.00 | 81 | 1008.0 |
| 20260507010242 | 48 | 52 | 7.0 | 12.0 | 0.00 | 0.00 | 0.00 | 81 | 1008.3 |
| 20260507004734 | 48 | 47 | 7.0 | 13.0 | 0.00 | 0.00 | 0.00 | 81 | 1008.4 |
| 20260507003238 | 48 | 18 | 6.0 | 14.0 | 0.00 | 0.00 | 0.00 | 81 | 1008.4 |
| 20260507001741 | 48 | 48 | 9.0 | 17.0 | 0.00 | 0.00 | 0.00 | 80 | 1008.2 |
| 20260507000242 | 49 | 73 | 7.0 | 13.0 | 0.00 | 0.00 | 0.00 | 79 | 1008.3 |
| 20260506234747 | 49 | 55 | 8.0 | 13.0 | 0.00 | 0.00 | 0.00 | 78 | 1008.5 |
| 20260506233236 | 50 | 68 | 11.0 | 13.0 | 0.00 | 0.00 | 0.00 | 77 | 1008.4 |
| 20260506231745 | 50 | 71 | 7.0 | 12.0 | 0.00 | 0.00 | 0.00 | 75 | 1008.4 |
| 20260506230256 | 51 | 54 | 6.0 | 13.0 | 0.00 | 0.00 | 0.00 | 72 | 1008.3 |
| 20260506224740 | 52 | 48 | 9.0 | 14.0 | 0.00 | 0.00 | 0.00 | 65 | 1008.4 |
| 20260506223248 | 54 | 54 | 7.0 | 12.0 | 0.00 | 0.00 | 0.00 | 52 | 1007.9 |
| 20260506221737 | 54 | 73 | 2.0 | 4.0 | 0.00 | 0.00 | 0.00 | 51 | 1007.9 |
| 20260506220244 | 54 | 73 | 2.0 | 5.0 | 0.00 | 0.00 | 0.00 | 52 | 1008.1 |
| 20260506214743 | 54 | 73 | 2.0 | 3.0 | 0.00 | 0.00 | 0.00 | 53 | 1008.1 |
| 20260506213307 | 54 | 73 | 3.0 | 5.0 | 0.00 | 0.00 | 0.00 | 52 | 1008.2 |
| 20260506211756 | 55 | 73 | 2.0 | 3.0 | 0.00 | 0.00 | 0.00 | 48 | 1008.2 |
| 20260506210233 | 55 | 73 | 1.0 | 3.0 | 0.00 | 0.00 | 0.00 | 46 | 1008.3 |
| 20260506204737 | 56 | 73 | 0.0 | 2.0 | 0.00 | 0.00 | 0.00 | 45 | 1008.1 |
| 20260506203232 | 56 | 73 | 2.0 | 3.0 | 0.00 | 0.00 | 0.00 | 43 | 1007.9 |
| 20260506201742 | 57 | 73 | 0.0 | 2.0 | 0.00 | 0.00 | 0.00 | 43 | 1007.8 |
| 20260506200235 | 58 | 73 | 2.0 | 3.0 | 0.00 | 0.00 | 0.00 | 39 | 1007.7 |
| 20260506194805 | 58 | 73 | 1.0 | 2.0 | 0.00 | 0.00 | 0.00 | 35 | 1007.7 |
| 20260506193233 | 58 | 73 | 0.0 | 2.0 | 0.00 | 0.00 | 0.00 | 32 | 1007.7 |
| 20260506191743 | 59 | 73 | 1.0 | 3.0 | 0.00 | 0.00 | 0.00 | 31 | 1007.7 |
| 20260506190234 | 59 | 73 | 2.0 | 3.0 | 0.00 | 0.00 | 0.00 | 31 | 1007.8 |
| 20260506184745 | 59 | 73 | 1.0 | 4.0 | 0.00 | 0.00 | 0.00 | 31 | 1007.7 |
| 20260506183235 | 59 | 73 | 4.0 | 6.0 | 0.00 | 0.00 | 0.00 | 31 | 1007.7 |
| 20260506181739 | 60 | 99 | 2.0 | 6.0 | 0.00 | 0.00 | 0.00 | 30 | 1007.8 |
| 20260506180300 | 60 | 109 | 3.0 | 7.0 | 0.00 | 0.00 | 0.00 | 30 | 1007.2 |
| 20260506174733 | 60 | 75 | 2.0 | 5.0 | 0.00 | 0.07 | 0.00 | 32 | 1008.1 |
| 20260506173257 | 60 | 83 | 3.0 | 7.0 | 0.00 | 0.07 | 0.00 | 31 | 1008.2 |
| 20260506171747 | 60 | 75 | 3.0 | 8.0 | 0.00 | 0.07 | 0.00 | 31 | 1007.4 |
| 20260506170310 | 61 | 128 | 2.0 | 7.0 | 0.00 | 0.07 | 0.00 | 32 | 1008.2 |
| 20260506164757 | 61 | 106 | 2.0 | 5.0 | 0.00 | 0.07 | 0.00 | 31 | 1008.3 |
| 20260506163259 | 61 | 152 | 2.0 | 7.0 | 0.00 | 0.07 | 0.00 | 31 | 1008.3 |
| 20260506161744 | 59 | 61 | 2.0 | 8.0 | 0.00 | 0.07 | 0.00 | 32 | 1008.3 |
| 20260506160239 | 61 | 167 | 2.0 | 8.0 | 0.00 | 0.07 | 0.00 | 31 | 1008.4 |
| 20260506154746 | 60 | 138 | 3.0 | 10.0 | 0.00 | 0.07 | 0.00 | 34 | 1007.8 |
| 20260506153236 | 59 | 62 | 1.0 | 6.0 | 0.00 | 0.07 | 0.00 | 33 | 1008.8 |
| 20260506151805 | 60 | 155 | 0.0 | 7.0 | 0.00 | 0.07 | 0.00 | 33 | 1008.9 |
| 20260506150304 | 59 | 117 | 4.0 | 10.0 | 0.00 | 0.07 | 0.00 | 35 | 1009.1 |
| 20260506144800 | 60 | 104 | 1.0 | 6.0 | 0.00 | 0.07 | 0.00 | 35 | 1009.3 |
| 20260506143246 | 59 | 82 | 4.0 | 11.0 | 0.00 | 0.07 | 0.00 | 36 | 1009.5 |
| 20260506141817 | 58 | 47 | 4.0 | 7.0 | 0.00 | 0.07 | 0.00 | 39 | 1009.7 |
| 20260506140242 | 57 | 49 | 7.0 | 8.0 | 0.00 | 0.07 | 0.00 | 39 | 1009.7 |
| 20260506134749 | 58 | 75 | 0.0 | 7.0 | 0.00 | 0.07 | 0.00 | 38 | 1009.9 |
| 20260506133235 | 60 | 157 | 1.0 | 5.0 | 0.00 | 0.07 | 0.00 | 35 | 1009.9 |
| 20260506131742 | 59 | 133 | 4.0 | 7.0 | 0.00 | 0.07 | 0.00 | 36 | 1010.0 |
| 20260506130242 | 57 | 48 | 4.0 | 11.0 | 0.00 | 0.07 | 0.00 | 41 | 1010.3 |
| 20260506124749 | 57 | 40 | 1.0 | 5.0 | 0.00 | 0.07 | 0.00 | 39 | 1010.2 |
| 20260506123236 | 57 | 178 | 0.0 | 6.0 | 0.00 | 0.07 | 0.00 | 41 | 1010.6 |
| 20260506121742 | 56 | 234 | 0.0 | 5.0 | 0.00 | 0.07 | 0.00 | 44 | 1010.8 |
| 20260506120257 | 55 | 291 | 3.0 | 7.0 | 0.00 | 0.07 | 0.00 | 44 | 1010.9 |
| 20260506114747 | 55 | 73 | 1.0 | 6.0 | 0.00 | 0.07 | 0.00 | 46 | 1011.1 |
| 20260506113235 | 54 | 14 | 3.0 | 7.0 | 0.00 | 0.07 | 0.00 | 47 | 1010.5 |
| 20260506111743 | 55 | 329 | 5.0 | 7.0 | 0.00 | 0.07 | 0.00 | 47 | 1011.2 |
| 20260506110258 | 55 | 27 | 1.0 | 8.0 | 0.00 | 0.07 | 0.00 | 47 | 1011.2 |
| 20260506104739 | 54 | 25 | 2.0 | 8.0 | 0.00 | 0.07 | 0.00 | 47 | 1010.5 |
| 20260506103252 | 54 | 58 | 5.0 | 7.0 | 0.00 | 0.07 | 0.00 | 47 | 1010.6 |
| 20260506101756 | 53 | 38 | 3.0 | 7.0 | 0.00 | 0.07 | 0.00 | 49 | 1010.8 |
| 20260506100250 | 52 | 320 | 6.0 | 8.0 | 0.00 | 0.07 | 0.00 | 50 | 1010.6 |
| 20260506094758 | 51 | 54 | 5.0 | 12.0 | 0.00 | 0.07 | 0.00 | 51 | 1010.6 |
| 20260506093241 | 51 | 76 | 1.0 | 8.0 | 0.00 | 0.07 | 0.00 | 55 | 1010.7 |
| 20260506091746 | 51 | 47 | 5.0 | 10.0 | 0.00 | 0.07 | 0.00 | 54 | 1010.7 |
| 20260506090243 | 51 | 34 | 5.0 | 9.0 | 0.00 | 0.07 | 0.00 | 57 | 1010.7 |
| 20260506084810 | 51 | 52 | 3.0 | 9.0 | 0.00 | 0.07 | 0.00 | 63 | 1010.6 |
| 20260506083239 | 50 | 37 | 4.0 | 8.0 | 0.00 | 0.07 | 0.00 | 66 | 1010.8 |
| 20260506081805 | 50 | 38 | 7.0 | 10.0 | 0.00 | 0.07 | 0.00 | 69 | 1010.6 |
| 20260506080239 | 49 | 20 | 5.0 | 7.0 | 0.00 | 0.07 | 0.00 | 73 | 1010.8 |
| 20260506073249 | 47 | 337 | 5.0 | 10.0 | 0.00 | 0.07 | 0.00 | 76 | 1011.0 |
| 20260506071742 | 47 | 27 | 2.0 | 3.0 | 0.00 | 0.07 | 0.00 | 80 | 1011.0 |
| 20260506070235 | 45 | 49 | 2.0 | 6.0 | 0.00 | 0.07 | 0.00 | 82 | 1011.1 |